Wind_Speed
3 4 4 5 5 5 4 4 5 5 5 4 4 4 3 3 3 3 3 3 3 4 4 4 4 4 4 4 3 3 3 4 4 4 4 5 5 5 6 6 6 6 6 6 7 7 7 7 7
5 5 5 6 6 5 5 5 5 5 5 4 4 4 4 4 3 3 3 3 3 4 4 4 4 4 4 4 4 4 4 4 5 5 5 5 5 6 6 6 6 6 6 7 7 7 8 8 8
6 6 7 7 7 6 6 6 5 5 5 5 5 4 4 4 4 4 3 3 4 4 4 4 4 3 4 4 4 4 5 5 5 5 5 5 6 6 7 7 7 7 7 7 8 8 8 8 9
7 7 7 7 7 7 7 7 6 5 5 6 5 5 5 4 4 4 4 3 4 4 4 4 4 4 4 4 4 5 5 5 5 6 6 6 6 6 7 7 7 7 7 8 8 8 8 9 9
8 8 7 7 7 7 7 7 6 6 6 6 5 5 5 4 4 5 5 5 5 5 5 5 5 5 4 5 5 5 6 6 6 6 7 7 7 7 7 7 8 7 8 8 8 8 9 9 10
8 7 7 7 6 6 7 7 7 7 6 5 5 5 5 5 5 5 5 5 4 4 5 5 5 6 5 5 5 6 6 6 6 7 7 7 7 7 8 8 8 9 9 9 8 8 9 9 10
8 8 8 7 7 7 6 7 7 7 7 6 6 6 5 5 5 5 5 5 5 5 4 4 5 6 6 6 5 5 6 6 6 6 7 7 8 8 9 9 9 9 9 9 9 9 9 9 10
8 8 8 8 8 7 7 7 7 7 7 7 7 7 6 6 5 6 6 6 5 5 5 4 4 5 5 6 6 6 6 7 7 7 8 8 8 9 9 9 9 9 8 8 9 9 9 9 10
8 9 8 8 8 7 7 7 7 7 7 7 8 8 8 7 6 6 6 6 6 5 5 5 4 5 5 6 5 6 6 6 6 7 7 8 8 8 9 9 8 8 8 9 9 9 9 10 10
9 8 8 8 8 7 7 7 7 7 7 8 8 8 9 8 7 7 6 6 6 6 6 6 5 5 5 6 5 5 5 5 6 6 7 8 8 8 9 8 8 8 8 8 8 9 9 10 10
9 9 8 9 9 9 9 8 8 7 8 8 8 9 8 8 8 7 7 7 6 6 6 5 5 5 5 6 6 6 6 6 6 6 7 8 8 8 8 8 8 8 8 8 9 9 9 9 10
10 10 10 10 10 10 9 9 8 9 8 8 8 8 8 8 8 7 7 7 7 7 7 6 6 6 6 6 7 7 7 7 7 7 7 8 8 8 7 8 9 10 10 9 9 10 10 10 10
11 11 11 11 11 11 10 10 9 9 9 9 9 9 8 8 8 8 7 7 7 7 7 7 7 7 8 7 8 8 8 8 8 8 8 8 8 8 8 8 9 10 11 10 11 11 11 11 11
11 12 12 12 12 12 11 11 10 10 10 10 10 10 9 9 9 9 8 8 8 7 8 8 8 8 8 8 8 9 9 8 8 9 8 8 8 8 9 10 10 10 11 11 12 12 12 12 12
12 12 12 13 13 13 12 11 11 11 11 11 10 11 11 10 10 10 10 9 8 9 9 8 8 8 8 9 9 10 10 10 9 10 9 9 9 10 9 10 11 11 11 11 12 12 13 13 12
13 13 13 13 13 13 13 13 13 13 12 12 11 11 11 11 11 11 11 10 10 10 10 10 10 10 10 10 10 11 11 11 11 11 11 11 11 10 10 10 11 11 11 11 12 12 13 13 13
14 14 14 14 14 14 14 14 14 14 14 14 13 12 12 12 12 12 12 11 11 11 11 11 12 12 11 11 12 12 12 12 12 12 12 12 12 11 11 12 12 12 12 13 13 13 13 13 13
15 15 15 15 16 16 16 15 15 15 15 15 14 14 13 13 13 12 12 12 12 12 12 12 13 13 12 12 12 13 13 13 13 13 13 13 13 13 13 13 14 14 14 13 13 14 14 15 15
15 16 16 16 17 17 16 16 16 16 16 16 16 16 15 14 14 13 13 13 13 13 13 13 13 13 13 13 14 14 14 14 14 14 14 14 14 14 14 14 15 15 15 14 15 15 15 16 16
16 16 16 17 17 17 17 17 17 17 17 17 17 17 16 15 15 14 14 14 15 14 14 13 13 14 14 14 15 15 15 15 15 15 15 15 15 15 15 16 16 15 15 15 16 16 16 16 16
16 15 16 16 16 17 17 17 17 16 17 17 18 17 17 17 16 16 16 16 16 16 16 15 15 15 15 16 16 16 16 17 16 16 16 16 16 16 17 17 16 16 16 16 17 17 17 17 17
15 15 15 15 16 16 16 16 17 16 16 16 17 17 18 17 17 16 16 16 16 16 17 16 16 17 17 17 17 17 17 17 17 17 17 17 17 17 17 18 17 18 18 18 18 18 19 19 19
15 15 15 15 15 16 15 17 16 16 16 16 16 17 17 17 18 17 16 17 17 17 16 17 17 18 18 18 17 18 18 18 18 18 18 19 19 19 19 19 19 19 19 19 19 19 20 20 19
15 16 16 16 16 16 14 15 15 15 16 16 16 16 17 17 18 17 17 17 17 17 17 17 18 18 18 19 19 19 19 19 19 19 19 19 19 19 20 20 19 19 19 19 20 20 20 20 19
14 15 16 16 16 16 14 15 14 14 15 16 16 17 17 17 18 18 18 18 18 18 18 18 18 19 19 19 19 20 20 20 20 20 20 20 20 20 20 21 21 21 21 20 21 21 21 20 20
13 14 15 17 17 16 15 16 15 14 15 17 17 17 17 18 18 18 18 18 18 18 18 19 19 19 20 20 20 20 21 21 22 22 22 21 21 22 22 22 22 21 21 21 22 22 21 21 21
14 15 16 17 18 18 17 16 16 16 16 17 18 18 19 19 19 19 19 19 19 19 19 19 19 20 20 21 21 22 22 23 23 23 23 23 23 23 23 23 23 22 22 23 23 22 22 22 22
15 16 17 18 19 20 18 17 17 17 18 17 19 19 20 20 19 19 19 20 20 20 20 21 21 21 22 22 22 23 23 23 24 24 25 24 24 24 24 24 23 23 22 23 23 23 23 23 23
16 17 18 19 21 21 21 19 19 19 19 19 19 20 20 21 20 21 21 21 21 21 21 22 22 22 22 22 22 23 24 24 24 25 25 25 25 24 24 24 23 23 23 23 23 23 23 24 23
17 18 18 20 21 22 22 19 19 20 19 20 20 20 21 22 22 22 23 22 22 22 22 22 22 23 24 24 24 24 24 24 24 24 24 25 25 24 24 24 24 24 24 24 24 24 24 24 23
Wind_Direction
235 232 226 220 222 228 229 227 229 224 216 212 216 220 228 222 226 233 227 221 224 235 238 241 249 248 252 261 270 275 277 280 286 287 290 293 296 298 300 300 293 293 292 292 292 292 296 294 291
242 239 238 236 234 236 229 231 232 227 225 224 226 226 231 233 240 245 240 227 222 232 239 242 247 249 250 255 261 266 274 280 284 287 290 294 296 297 296 299 293 290 290 290 291 296 298 296 292
241 239 240 243 241 245 242 238 237 234 233 233 239 240 243 245 241 238 237 234 237 237 240 244 243 246 256 258 255 266 273 277 284 291 293 296 299 300 298 298 297 292 288 288 291 296 298 295 293
242 240 242 245 243 243 244 241 240 242 238 237 243 251 251 247 240 239 238 243 244 242 240 245 251 255 261 266 265 267 273 278 286 295 294 292 296 297 298 299 299 298 292 289 290 295 296 295 292
243 242 243 246 245 245 240 237 237 238 237 236 241 249 250 248 249 250 243 248 250 248 243 243 248 253 262 265 263 269 276 279 284 291 292 291 294 294 296 299 301 302 299 294 290 290 291 294 292
242 240 242 246 245 243 237 240 239 236 233 234 238 246 253 250 252 253 254 251 255 248 244 247 250 250 252 261 267 265 275 277 282 289 293 294 294 293 293 295 295 297 294 289 288 290 291 293 292
247 243 242 242 243 246 240 242 239 233 232 235 241 249 255 252 250 253 259 263 256 252 248 253 256 255 252 258 269 272 273 274 278 283 290 291 291 291 292 292 289 289 287 285 288 291 291 294 296
248 248 246 245 244 242 241 240 239 237 236 238 241 248 253 250 253 259 256 259 255 255 258 263 267 253 256 259 261 266 271 272 275 279 285 285 285 289 289 290 288 285 282 283 287 290 292 294 295
252 253 252 249 248 244 241 243 241 240 241 244 248 252 252 253 256 258 251 252 250 249 258 264 263 271 269 261 261 259 266 270 271 277 283 283 283 290 289 290 289 287 283 284 286 289 292 295 295
256 254 251 248 247 245 245 246 242 243 244 248 252 255 254 254 258 257 253 252 251 253 256 254 257 267 273 273 271 265 269 270 271 275 279 281 283 288 289 288 287 284 284 286 288 290 290 293 293
256 254 249 246 248 249 250 251 248 247 248 250 253 255 254 254 253 254 252 256 256 253 256 258 267 270 271 272 276 277 280 281 289 289 280 282 286 288 287 282 280 282 287 288 287 287 290 293 293
257 253 251 251 253 253 252 251 248 245 249 251 255 258 256 257 257 256 255 257 263 262 261 263 266 264 267 269 271 275 280 283 289 292 294 291 294 296 293 280 279 279 280 285 287 288 289 290 291
256 254 252 252 254 255 254 251 247 249 251 254 257 257 253 258 258 256 258 263 270 271 270 269 268 267 267 268 270 273 275 279 286 290 295 297 300 297 295 291 287 283 282 284 288 291 289 288 290
260 256 255 254 255 255 255 252 252 254 256 257 256 255 253 254 259 258 257 259 263 265 263 266 268 271 273 274 274 274 274 275 279 283 287 292 296 297 296 292 288 283 282 286 291 290 288 288 289
260 258 257 257 258 256 255 255 256 257 257 256 254 253 254 253 255 258 258 258 256 260 262 266 268 272 274 273 272 272 273 274 276 279 281 287 289 292 293 289 286 285 286 288 289 291 291 290 289
261 258 256 257 257 257 256 255 256 258 257 255 254 251 252 253 256 258 258 258 258 261 264 267 270 273 274 272 271 271 273 273 275 279 281 284 287 288 289 290 289 286 287 288 290 292 293 292 290
263 260 257 257 256 257 258 257 256 255 255 255 253 251 250 250 254 256 257 258 259 263 264 267 270 271 271 272 273 275 275 273 272 276 279 282 283 285 287 290 290 291 289 287 287 289 290 291 290
264 262 258 258 258 258 258 256 254 254 253 254 252 252 251 249 250 253 255 257 260 263 263 266 268 269 269 271 272 274 274 275 272 275 279 281 281 282 285 286 289 292 291 290 288 289 290 290 290
266 264 261 258 258 259 259 257 254 254 254 254 254 253 251 248 248 249 253 257 261 264 264 262 265 266 267 270 271 272 274 274 275 277 279 280 280 279 279 283 288 289 288 290 289 290 290 292 292
271 269 265 261 260 260 260 258 256 254 254 255 255 255 252 250 250 251 252 255 258 262 264 262 265 267 267 268 269 270 273 274 274 275 276 276 277 279 279 281 286 287 288 289 289 289 290 291 291
272 269 264 259 258 259 260 258 258 255 254 255 256 257 256 255 254 253 254 254 257 260 262 262 264 265 267 267 270 272 274 274 276 277 275 275 277 280 281 283 284 285 285 287 288 287 288 287 289
269 266 264 261 260 260 261 259 256 256 253 254 254 256 257 257 257 258 258 256 257 262 262 262 264 265 267 269 271 272 274 274 275 276 274 276 280 280 281 282 283 283 283 286 287 287 286 287 288
268 264 264 264 263 261 260 262 256 255 251 252 255 255 255 256 256 258 259 259 259 262 264 266 268 268 269 270 271 274 275 275 275 276 275 277 278 280 281 280 280 281 282 284 287 288 288 287 287
271 267 263 262 263 260 260 263 258 258 254 252 253 255 256 256 257 258 258 260 262 263 266 268 269 270 270 271 272 274 276 277 277 277 276 277 279 279 278 277 278 280 282 283 285 289 288 287 287
275 272 266 261 260 262 264 263 262 265 262 256 255 255 256 257 258 258 259 263 266 267 268 270 271 270 271 271 272 274 276 278 278 278 279 279 279 278 276 276 277 278 280 283 283 285 286 284 286
276 273 268 266 264 265 266 266 267 269 266 258 253 254 256 259 260 261 264 265 266 267 269 270 272 273 273 273 274 274 276 276 276 277 278 279 280 279 278 276 276 278 280 282 283 282 283 284 283
275 271 269 267 267 267 269 269 268 268 269 262 256 255 257 260 261 264 267 267 266 268 270 271 273 274 275 275 274 275 276 276 275 275 277 279 281 281 280 280 280 279 281 282 283 281 279 282 283
276 276 273 269 270 270 270 271 271 271 269 265 259 258 258 260 263 268 270 269 270 270 271 272 274 276 278 276 276 278 278 277 275 275 275 277 279 280 281 281 282 281 281 283 282 282 281 281 281
275 274 275 273 272 272 273 274 275 271 268 265 262 260 260 260 265 270 273 273 272 273 274 274 275 276 278 279 279 280 280 279 278 277 276 277 278 278 278 279 282 283 282 282 282 283 281 280 280
275 274 276 276 275 275 276 275 276 272 269 265 262 260 261 262 264 269 274 275 275 275 274 275 275 276 278 279 280 281 281 281 281 278 278 278 278 278 278 278 280 283 283 282 281 281 281 280 278
Height
5857 5857 5858 5860 5861 5861 5861 5862 5862 5862 5863 5864 5864 5865 5866 5867 5868 5870 5868 5867 5867 5868 5868 5868 5869 5869 5869 5869 5869 5869 5869 5869 5869 5869 5869 5869 5869 5869 5869 5869 5869 5869 5869 5869 5869 5869 5869 5869 5869
5856 5857 5859 5860 5860 5860 5861 5861 5861 5862 5863 5863 5864 5864 5865 5866 5866 5866 5866 5866 5866 5867 5867 5867 5868 5868 5868 5868 5868 5868 5869 5869 5868 5868 5868 5868 5868 5868 5868 5868 5868 5868 5868 5868 5868 5868 5867 5867 5867
5856 5857 5859 5859 5859 5860 5860 5860 5861 5861 5862 5863 5863 5864 5865 5865 5865 5865 5865 5866 5866 5866 5866 5867 5867 5867 5867 5867 5867 5868 5868 5868 5868 5868 5867 5867 5867 5867 5867 5866 5866 5866 5866 5866 5866 5866 5866 5866 5865
5855 5857 5858 5858 5858 5859 5859 5860 5860 5861 5861 5862 5863 5863 5864 5864 5865 5865 5865 5865 5865 5865 5865 5866 5866 5866 5866 5866 5866 5867 5867 5867 5867 5867 5866 5866 5866 5866 5865 5865 5865 5865 5865 5865 5865 5865 5864 5864 5864
5854 5855 5856 5856 5857 5858 5858 5859 5859 5860 5861 5861 5862 5862 5863 5863 5863 5863 5864 5864 5864 5864 5864 5865 5865 5865 5865 5865 5865 5866 5866 5865 5866 5865 5865 5864 5864 5864 5864 5864 5863 5863 5863 5863 5863 5863 5863 5862 5862
5853 5854 5855 5855 5856 5857 5857 5858 5859 5859 5860 5860 5861 5862 5862 5862 5862 5862 5863 5863 5863 5863 5863 5864 5864 5864 5864 5864 5864 5864 5864 5864 5864 5864 5863 5863 5863 5862 5862 5862 5861 5861 5861 5861 5860 5861 5860 5860 5860
5852 5853 5853 5854 5855 5856 5857 5857 5858 5858 5859 5859 5860 5860 5860 5861 5861 5861 5861 5861 5862 5862 5862 5862 5862 5863 5863 5863 5863 5863 5863 5863 5862 5862 5862 5861 5861 5861 5860 5860 5859 5859 5859 5859 5859 5859 5858 5858 5858
5850 5852 5852 5853 5853 5855 5855 5856 5856 5857 5857 5858 5859 5859 5859 5860 5860 5860 5860 5860 5861 5861 5861 5861 5861 5861 5861 5861 5861 5861 5861 5861 5861 5860 5860 5860 5859 5859 5858 5858 5857 5857 5856 5856 5856 5857 5856 5856 5856
5849 5851 5850 5851 5852 5853 5854 5854 5855 5855 5856 5857 5857 5858 5858 5858 5858 5859 5859 5859 5859 5859 5859 5860 5860 5860 5860 5860 5860 5860 5860 5859 5859 5859 5858 5858 5857 5857 5856 5856 5855 5854 5854 5854 5854 5854 5854 5854 5853
5848 5848 5849 5850 5851 5851 5852 5853 5853 5854 5855 5855 5855 5856 5856 5856 5857 5857 5857 5857 5858 5858 5858 5858 5858 5858 5858 5858 5858 5858 5858 5858 5857 5857 5857 5856 5856 5855 5854 5853 5853 5853 5852 5852 5852 5852 5852 5852 5851
5846 5847 5847 5848 5848 5849 5850 5851 5852 5853 5853 5853 5854 5854 5854 5855 5855 5855 5856 5856 5856 5856 5857 5857 5857 5857 5857 5857 5857 5856 5856 5856 5856 5855 5855 5854 5854 5853 5852 5852 5851 5851 5851 5850 5850 5850 5850 5849 5849
5844 5845 5845 5846 5846 5847 5848 5849 5850 5850 5851 5851 5852 5852 5853 5853 5853 5853 5854 5854 5854 5855 5855 5855 5855 5855 5855 5855 5855 5855 5854 5854 5854 5854 5853 5852 5852 5851 5851 5850 5849 5849 5849 5849 5848 5848 5847 5847 5846
5842 5842 5843 5844 5845 5845 5846 5847 5848 5848 5849 5849 5849 5850 5850 5851 5851 5851 5852 5852 5852 5852 5853 5853 5853 5853 5853 5853 5853 5853 5853 5852 5852 5852 5851 5851 5850 5850 5849 5848 5848 5847 5846 5846 5846 5845 5845 5844 5844
5840 5840 5841 5842 5842 5843 5844 5844 5845 5846 5846 5847 5847 5847 5848 5849 5849 5850 5850 5850 5850 5850 5850 5851 5851 5851 5851 5851 5851 5851 5850 5850 5850 5850 5849 5849 5848 5848 5847 5846 5846 5845 5844 5844 5843 5843 5842 5841 5841
5837 5838 5839 5839 5839 5840 5841 5842 5843 5843 5843 5844 5844 5845 5846 5846 5847 5848 5848 5848 5848 5848 5848 5848 5848 5848 5848 5848 5848 5848 5848 5848 5847 5847 5846 5846 5846 5845 5845 5844 5844 5843 5842 5841 5840 5840 5839 5839 5838
5834 5835 5836 5837 5837 5837 5839 5840 5840 5840 5840 5841 5841 5842 5843 5843 5844 5845 5845 5846 5846 5846 5846 5846 5846 5846 5846 5845 5845 5845 5845 5845 5845 5844 5844 5843 5843 5843 5842 5842 5841 5840 5839 5838 5838 5837 5836 5836 5835
5831 5832 5833 5834 5834 5834 5835 5836 5836 5836 5837 5838 5838 5839 5839 5840 5841 5842 5842 5843 5843 5843 5843 5843 5843 5843 5843 5842 5842 5842 5842 5842 5841 5841 5841 5840 5840 5839 5839 5839 5838 5837 5836 5836 5835 5834 5833 5832 5832
5828 5828 5829 5829 5830 5830 5830 5831 5832 5832 5833 5834 5835 5835 5836 5837 5837 5838 5839 5839 5840 5840 5840 5840 5840 5840 5839 5839 5839 5839 5839 5838 5838 5838 5837 5837 5836 5836 5836 5835 5834 5834 5833 5832 5832 5831 5830 5829 5828
5824 5824 5824 5825 5825 5826 5826 5827 5828 5829 5829 5830 5831 5832 5832 5833 5834 5834 5835 5836 5836 5836 5836 5836 5836 5836 5836 5836 5836 5835 5835 5835 5834 5834 5834 5833 5833 5832 5832 5831 5831 5830 5829 5829 5828 5827 5826 5825 5824
5819 5819 5819 5820 5820 5821 5822 5823 5824 5824 5825 5826 5827 5828 5829 5829 5830 5831 5831 5832 5833 5833 5832 5832 5832 5832 5832 5832 5832 5832 5831 5831 5831 5830 5830 5829 5829 5828 5828 5827 5826 5826 5825 5825 5824 5823 5822 5821 5820
5815 5815 5815 5815 5816 5816 5817 5818 5819 5820 5821 5822 5823 5824 5825 5826 5826 5827 5827 5828 5828 5829 5828 5829 5828 5829 5828 5828 5828 5828 5827 5827 5826 5826 5825 5825 5824 5824 5823 5823 5822 5821 5821 5820 5819 5818 5817 5816 5815
5810 5810 5810 5810 5811 5811 5813 5813 5815 5816 5816 5817 5818 5819 5820 5821 5822 5823 5823 5824 5824 5824 5824 5824 5824 5824 5824 5823 5823 5823 5823 5822 5822 5822 5821 5820 5820 5819 5818 5818 5818 5817 5816 5815 5814 5813 5812 5811 5810
5806 5806 5806 5806 5807 5807 5808 5808 5811 5811 5812 5813 5814 5815 5816 5817 5818 5819 5819 5819 5820 5820 5820 5819 5819 5819 5819 5818 5818 5818 5818 5817 5817 5816 5816 5815 5815 5814 5813 5813 5812 5812 5811 5810 5809 5808 5806 5805 5804
5802 5802 5802 5802 5803 5804 5805 5805 5806 5806 5807 5808 5809 5810 5812 5812 5813 5814 5814 5815 5815 5815 5815 5815 5814 5814 5813 5813 5813 5813 5812 5812 5811 5811 5811 5810 5809 5809 5808 5807 5806 5806 5805 5804 5803 5802 5801 5799 5798
5799 5799 5798 5798 5798 5800 5801 5800 5802 5802 5803 5803 5805 5806 5807 5808 5809 5809 5810 5810 5810 5810 5810 5810 5810 5809 5808 5808 5808 5807 5807 5806 5806 5805 5805 5804 5804 5803 5802 5801 5800 5800 5799 5798 5797 5796 5794 5793 5792
5796 5796 5796 5796 5795 5796 5796 5796 5798 5798 5798 5798 5800 5801 5802 5803 5804 5805 5805 5805 5805 5805 5805 5805 5804 5804 5803 5803 5802 5802 5801 5800 5799 5799 5798 5798 5797 5796 5795 5795 5794 5793 5792 5791 5790 5789 5788 5787 5786
5793 5792 5793 5792 5791 5792 5792 5793 5794 5794 5794 5794 5795 5796 5797 5798 5799 5800 5800 5800 5800 5800 5800 5799 5799 5798 5798 5797 5796 5795 5795 5794 5793 5792 5792 5791 5790 5789 5788 5788 5787 5786 5785 5784 5783 5783 5782 5780 5779
5790 5789 5789 5788 5787 5787 5788 5789 5790 5790 5790 5790 5790 5791 5792 5793 5794 5794 5794 5794 5794 5794 5794 5794 5793 5792 5791 5790 5790 5789 5788 5787 5786 5785 5785 5784 5783 5782 5781 5780 5780 5779 5778 5777 5776 5775 5774 5774 5772
5787 5786 5784 5784 5783 5783 5782 5786 5784 5784 5784 5785 5785 5786 5786 5787 5788 5789 5789 5789 5789 5788 5788 5787 5787 5786 5785 5784 5783 5782 5781 5780 5778 5778 5777 5776 5775 5775 5774 5773 5773 5772 5771 5770 5769 5768 5767 5766 5765
5782 5781 5780 5780 5779 5778 5777 5782 5779 5779 5779 5779 5779 5780 5781 5782 5782 5783 5783 5783 5783 5782 5781 5781 5780 5779 5778 5777 5776 5775 5774 5773 5771 5771 5770 5769 5768 5767 5767 5766 5765 5765 5764 5762 5761 5760 5759 5758 5758